Temperature
19 18 18 18 18 18 18 17 17 17 16 16 16 16 16 16 16 16 16 15 15 15 15 15 15 15 15 15 15 15 15 15 15 15 15 16 16 16 16 16 16 15 16
19 18 18 18 18 18 18 17 17 17 16 16 16 16 16 16 15 15 15 15 15 15 15 15 15 15 15 15 15 15 15 15 15 15 15 15 15 15 15 15 15 15 15
19 18 18 18 18 18 17 17 17 16 16 16 16 16 15 15 15 15 15 15 15 15 15 15 15 15 15 14 14 14 14 14 14 14 15 15 15 15 15 15 15 15 15
18 18 18 18 17 17 17 17 17 16 16 16 16 15 15 15 15 15 15 15 15 15 14 14 14 14 14 14 14 14 14 14 14 14 14 14 15 15 15 15 15 15 15
18 18 18 17 17 17 17 16 16 16 16 16 15 15 15 15 15 15 15 15 15 14 14 14 14 14 14 14 14 14 14 14 14 14 14 14 14 14 14 14 15 15 15
18 18 18 17 17 17 16 16 16 16 16 15 15 15 15 15 15 15 14 14 14 14 14 14 14 14 14 14 14 14 14 14 14 14 14 14 14 14 14 14 14 14 14
18 17 17 17 17 16 16 16 16 16 15 15 15 15 15 15 15 14 14 14 14 14 14 14 14 14 14 14 14 14 14 14 13 13 13 14 14 14 14 14 14 14 14
17 17 17 16 16 16 16 16 16 15 15 15 15 15 15 14 14 14 14 14 14 14 14 13 13 13 13 13 13 13 14 13 13 13 13 13 13 13 13 13 13 13 14
17 17 16 16 16 16 16 16 15 15 15 15 15 14 14 14 14 14 14 13 13 13 13 13 13 13 13 13 13 13 13 13 13 13 13 13 13 13 13 13 13 13 13
17 16 16 16 16 16 16 15 15 15 15 14 14 14 14 14 14 13 13 13 13 13 13 13 13 13 13 13 13 13 13 13 13 13 13 13 13 13 13 13 13 13 13
16 16 16 16 16 15 15 15 15 15 15 14 14 14 14 14 13 13 13 13 13 13 13 13 13 13 13 13 13 13 13 13 13 13 13 13 13 13 13 13 13 13 13
16 16 16 16 15 15 15 15 15 15 14 14 14 14 14 13 13 13 13 13 12 12 12 12 12 12 12 12 12 13 13 13 12 12 12 12 12 12 12 12 12 12 12
16 16 15 15 15 15 15 14 14 14 14 14 13 13 13 13 13 13 13 12 12 12 12 12 12 12 12 12 12 12 12 12 12 12 12 12 12 12 12 12 12 12 12
15 15 15 15 15 14 14 14 14 14 13 13 13 13 13 13 13 12 12 12 12 12 12 12 12 12 12 12 12 12 11 11 11 11 11 11 11 11 11 11 11 12 12
15 15 15 14 14 14 14 14 13 13 13 13 13 12 12 12 12 12 12 12 12 12 11 11 11 11 11 11 11 11 11 11 11 11 11 11 11 11 11 11 11 11 11
14 14 14 14 14 13 13 13 13 13 13 12 12 12 12 12 11 11 11 11 11 11 11 11 11 11 10 10 10 10 10 10 10 10 10 10 10 10 10 11 10 10 10
14 14 14 13 13 13 13 13 13 12 12 12 12 12 11 11 11 11 11 11 11 11 11 10 10 10 10 10 10 10 10 10 10 10 9 9 9 10 10 10 10 10 10
14 13 13 13 13 13 13 12 12 12 12 12 12 11 11 11 11 11 11 11 11 10 10 10 10 10 10 10 10 10 10 10 9 9 9 9 9 9 9 9 9 9 9
13 13 13 13 13 12 12 12 12 12 11 11 11 11 11 11 11 10 10 10 10 10 10 10 10 10 9 9 9 9 9 9 9 9 9 9 9 9 9 9 9 9 9
13 13 13 12 12 12 12 12 11 11 11 11 11 11 11 10 10 10 10 10 10 10 10 10 9 9 9 9 9 9 9 9 9 9 8 8 8 8 8 8 8 8 8
13 12 12 12 12 12 11 11 11 11 11 10 10 10 10 10 10 10 10 10 10 9 9 9 9 9 9 9 9 8 8 8 8 8 8 8 8 8 8 8 8 8 7
12 12 12 11 11 11 11 11 10 10 10 10 10 10 10 10 10 10 9 9 9 9 9 9 9 9 8 8 8 8 8 8 8 8 8 8 7 7 7 7 7 7 7
12 12 11 11 11 11 10 10 10 10 10 10 10 10 10 9 9 9 9 9 9 9 9 8 8 8 8 8 8 8 8 7 7 7 7 7 7 7 7 7 7 7 7
11 11 11 11 11 10 10 10 10 10 10 9 9 9 9 9 9 9 9 9 9 8 8 8 8 8 8 8 7 7 7 7 7 7 7 7 7 7 6 6 6 6 6
11 11 11 11 10 10 10 10 9 9 9 9 9 8 8 8 9 8 8 8 8 8 8 8 8 8 7 7 7 7 7 7 7 7 7 7 6 6 6 6 6 6 6
11 10 10 10 10 10 10 9 9 9 9 8 8 8 8 8 8 8 8 8 8 8 8 7 7 7 7 7 7 7 7 7 7 6 6 6 6 6 6 6 6 6 6
Wind_Speed
4 3 2 1 1 1 1 1 1 1 1 1 1 1 2 2 2 1 1 1 1 2 1 1 2 2 1 1 1 1 1 2 3 3 2 2 2 3 2 3 4 5 6
3 3 2 2 1 1 1 2 1 1 1 1 1 1 2 2 2 1 2 2 2 2 2 2 3 2 2 2 2 2 2 2 3 4 3 2 3 3 2 3 3 4 5
3 3 2 2 2 2 2 2 1 1 2 1 1 2 2 2 2 2 2 2 3 3 3 3 3 2 3 3 2 3 3 2 2 3 3 2 2 2 2 3 4 4 5
3 3 3 3 3 3 2 2 2 1 2 2 2 2 3 3 3 3 2 3 3 3 3 3 4 3 4 4 3 3 3 3 2 2 3 3 2 2 2 3 4 4 5
3 3 3 3 2 2 2 2 1 1 2 2 2 3 3 3 3 3 3 3 3 4 4 4 4 4 5 4 3 3 3 3 3 3 3 3 3 2 3 3 5 4 5
3 3 3 2 2 2 2 2 1 1 2 1 2 3 3 3 5 5 3 3 4 4 5 5 5 5 5 6 6 5 4 4 4 4 4 4 5 4 4 4 4 4 4
3 2 2 2 2 2 2 2 2 2 2 2 3 3 4 5 6 6 5 4 4 4 5 5 5 4 4 5 6 6 6 7 7 5 5 6 6 5 4 5 5 5 6
2 1 2 2 3 2 2 2 3 2 2 3 3 3 4 6 6 6 5 4 4 5 5 5 5 5 5 4 4 4 5 6 7 6 6 7 7 6 6 6 6 5 5
0 1 2 2 3 3 3 3 3 2 3 3 3 4 4 6 7 5 4 3 4 5 5 4 5 5 7 5 3 5 6 6 6 7 9 8 8 7 5 3 4 4 5
2 2 2 2 3 3 4 3 3 2 3 3 3 4 4 5 6 6 4 2 3 4 4 5 5 6 7 5 3 4 6 6 5 5 5 5 6 6 6 6 5 5 4
2 2 1 2 2 3 2 2 2 2 2 3 3 4 4 5 6 6 4 2 3 4 4 4 5 6 6 6 4 4 6 5 4 4 4 4 4 4 4 4 5 5 6
1 1 1 2 2 1 1 1 1 1 2 3 3 4 4 4 4 5 5 4 4 3 4 4 4 5 5 5 3 5 5 3 2 3 3 4 4 4 5 5 5 6 7
1 1 2 2 2 1 1 1 1 1 2 3 3 4 5 4 4 5 6 6 5 3 4 5 5 5 5 4 5 5 3 2 2 3 4 5 5 5 5 4 4 5 6
1 2 2 1 2 2 1 1 1 2 2 2 3 4 4 4 4 4 4 4 5 4 4 5 5 4 3 4 4 3 2 2 2 3 5 5 4 4 3 3 4 4 3
2 2 2 2 2 2 2 2 2 3 4 4 3 3 4 5 6 6 4 4 4 3 3 2 2 2 3 3 3 3 3 3 3 3 4 4 4 4 4 3 3 3 3
1 2 2 2 2 2 2 3 3 4 5 5 5 4 4 6 8 7 7 7 6 4 1 2 3 3 3 3 4 4 3 3 3 3 3 4 4 4 4 3 2 3 3
2 2 2 2 2 2 2 2 4 5 4 4 5 5 5 6 7 7 7 6 4 1 1 2 3 3 3 4 3 3 4 4 3 3 3 3 3 3 3 3 3 3 4
2 2 2 2 2 2 2 3 3 3 4 4 5 6 6 7 7 7 6 3 2 1 2 3 3 3 3 4 3 3 3 3 3 3 3 3 3 3 3 3 3 3 4
2 2 2 2 2 2 2 2 2 3 3 4 4 5 5 6 6 5 3 2 3 3 3 3 3 3 3 3 3 3 3 3 3 3 3 3 3 3 3 3 3 4 3
2 2 2 1 1 2 2 2 2 3 4 4 5 5 4 3 3 4 3 3 3 4 4 4 3 3 3 3 3 3 3 3 3 3 3 3 3 3 3 4 3 3 3
1 1 1 1 1 2 2 2 2 3 4 4 5 5 4 3 4 4 4 4 4 4 4 3 3 3 3 3 3 3 3 3 3 3 3 3 3 3 3 3 3 3 3
1 1 1 1 1 2 2 2 3 3 4 5 5 4 4 3 3 4 4 4 4 4 3 3 2 2 3 3 3 3 3 3 3 3 3 3 3 3 3 3 3 3 3
1 1 2 2 2 2 2 3 3 3 4 4 4 4 3 3 4 4 4 4 4 4 3 2 2 3 3 3 2 2 3 3 3 3 3 3 3 3 3 3 3 3 3
0 1 1 2 1 2 3 3 3 3 3 3 3 3 3 3 3 4 4 4 4 3 3 2 2 3 4 4 3 3 3 4 4 3 3 3 3 3 2 3 3 3 3
0 1 1 2 2 2 3 3 3 3 3 3 3 4 4 4 4 4 4 3 3 3 4 3 3 4 5 5 5 5 6 5 4 4 3 3 3 3 3 3 2 2 2
0 1 1 2 2 2 2 3 3 3 3 3 3 4 4 4 4 4 3 3 3 3 4 3 4 5 5 5 6 6 6 5 4 3 2 2 2 2 2 2 3 2 2
Wind_Direction
186 188 189 199 200 215 227 258 268 289 313 309 308 327 334 343 346 339 318 326 325 319 326 332 307 299 298 291 274 257 247 232 254 277 264 274 244 255 258 238 230 228 233
184 182 191 196 193 214 250 266 265 274 285 280 293 316 316 322 322 312 307 305 279 281 288 293 295 297 291 285 269 262 256 241 239 270 279 269 255 258 252 243 244 238 240
170 177 187 200 207 222 245 266 274 270 284 298 306 298 302 303 302 289 279 281 277 274 270 265 274 276 282 278 268 267 264 260 249 262 279 266 259 273 261 261 256 252 250
169 177 191 214 219 224 231 241 256 260 269 283 290 288 285 287 291 288 287 284 283 286 283 273 265 257 258 259 260 262 260 258 259 266 277 277 265 276 255 258 264 252 253
173 190 212 225 227 224 236 247 253 265 275 272 283 297 297 293 294 293 286 278 277 285 289 283 276 274 264 255 262 257 246 250 258 264 271 280 273 265 253 246 255 264 253
174 207 220 216 224 232 247 257 272 288 292 294 288 293 299 299 305 297 282 273 268 272 281 285 283 277 278 268 264 254 233 236 245 251 260 267 267 260 254 246 249 260 262
180 218 233 222 230 247 257 269 269 270 273 284 289 289 290 294 301 300 287 272 271 273 275 280 286 291 284 282 274 264 252 244 232 233 250 259 262 253 250 254 245 247 253
166 214 240 234 244 251 247 256 263 257 259 267 282 284 289 300 304 298 292 275 280 282 278 275 278 290 292 285 280 276 269 264 249 240 247 256 261 258 244 248 254 260 266
89 265 257 241 244 251 253 259 254 253 265 270 280 283 290 299 307 303 294 281 286 290 290 292 288 291 295 292 276 277 282 282 270 254 249 257 264 264 255 255 253 253 265
254 259 256 241 240 252 256 258 261 255 264 278 288 286 286 295 307 307 294 281 292 298 303 304 296 295 297 289 268 271 279 285 293 294 279 277 275 267 247 234 235 241 253
258 266 273 263 251 249 260 270 283 277 283 290 292 295 293 293 304 307 297 270 274 288 300 305 305 300 295 289 270 267 271 280 290 290 293 297 297 286 269 254 235 231 239
285 290 291 288 276 267 276 310 319 300 298 299 302 307 307 307 308 309 299 277 276 265 280 288 297 306 303 304 302 301 296 295 299 303 301 299 298 296 290 282 261 248 247
356 319 306 316 317 313 279 286 305 295 279 292 299 302 309 314 312 310 305 291 284 269 281 290 301 311 311 315 318 324 328 322 313 302 295 292 289 289 293 293 289 275 268
306 299 304 315 317 320 309 279 268 274 275 282 288 294 301 308 311 319 317 304 290 284 290 299 302 315 322 318 329 332 329 316 303 295 295 297 302 306 305 303 298 297 291
274 292 301 297 288 303 302 278 258 256 241 241 260 269 286 295 291 292 300 302 297 288 301 316 326 334 336 329 325 325 328 331 314 307 310 314 317 317 315 321 310 299 288
255 284 288 292 293 281 282 306 295 266 272 257 255 259 268 269 290 304 303 298 297 295 302 291 288 295 294 298 302 309 313 310 302 300 303 304 304 306 309 315 315 304 294
224 254 277 278 273 276 283 283 299 315 310 291 286 285 280 292 301 307 310 310 308 263 249 274 277 280 283 287 288 287 285 287 287 292 298 299 299 303 304 311 313 313 311
234 242 250 260 267 270 272 274 275 290 309 310 301 293 296 300 305 310 315 333 334 315 278 276 279 281 286 287 286 287 289 297 294 291 295 297 298 301 303 306 305 309 308
241 248 254 266 277 278 277 285 288 286 290 300 311 314 306 306 307 314 326 315 284 280 279 281 281 282 284 287 293 295 296 299 302 300 303 304 302 298 296 299 303 312 310
250 255 266 267 282 289 287 291 297 296 295 297 299 302 318 328 327 324 322 305 291 286 283 280 277 276 280 288 293 295 298 302 305 306 310 307 303 298 296 300 302 305 305
248 255 276 291 279 283 290 293 293 291 293 294 295 296 292 290 291 296 302 300 292 288 290 291 292 291 291 293 293 297 298 299 302 304 306 302 299 296 296 297 298 297 303
220 237 257 264 277 287 292 295 296 296 295 295 302 309 301 305 305 306 308 305 300 295 297 295 298 301 297 300 299 297 298 300 303 304 303 302 301 298 296 300 307 305 303
217 249 264 273 274 282 289 293 294 294 296 299 303 308 313 310 308 310 313 318 319 316 315 312 312 316 319 315 304 290 290 295 297 296 295 294 294 294 295 297 301 306 309
238 263 268 275 283 287 294 300 302 302 302 309 314 315 315 311 312 316 319 322 326 329 334 339 330 326 329 328 316 309 302 302 300 292 286 285 289 293 293 294 296 296 295
357 308 291 280 281 287 295 300 306 312 315 319 319 317 318 317 318 321 324 329 331 332 333 334 330 327 325 325 325 323 323 322 313 306 293 283 285 290 291 290 291 296 295
313 299 294 290 293 295 296 298 304 312 311 312 314 312 315 319 320 319 325 331 329 328 329 328 327 328 328 326 329 334 334 330 326 318 295 281 282 288 298 290 290 291 299
Height
1519 1520 1520 1520 1520 1520 1519 1518 1518 1517 1516 1516 1515 1514 1513 1512 1511 1510 1509 1508 1507 1506 1506 1505 1504 1503 1502 1502 1501 1500 1500 1499 1497 1496 1496 1496 1496 1496 1496 1496 1496 1497 1497
1518 1519 1519 1519 1519 1518 1518 1517 1517 1516 1515 1514 1514 1513 1511 1510 1509 1508 1507 1506 1505 1504 1503 1503 1502 1501 1500 1499 1498 1497 1497 1496 1495 1494 1493 1493 1493 1493 1493 1494 1494 1495 1495
1517 1518 1517 1517 1517 1517 1516 1516 1515 1514 1513 1513 1512 1511 1510 1509 1508 1506 1505 1504 1503 1502 1501 1500 1499 1499 1498 1497 1496 1495 1494 1493 1492 1491 1490 1490 1489 1490 1490 1490 1491 1491 1492
1516 1516 1516 1516 1516 1515 1515 1514 1513 1512 1511 1511 1510 1509 1508 1507 1505 1504 1503 1502 1501 1500 1499 1498 1497 1496 1495 1494 1492 1492 1491 1490 1489 1488 1487 1487 1487 1486 1486 1486 1486 1487 1487
1514 1514 1514 1514 1514 1514 1513 1512 1511 1510 1510 1509 1508 1507 1506 1504 1503 1502 1501 1499 1498 1497 1496 1495 1494 1493 1492 1491 1489 1488 1488 1487 1486 1485 1484 1484 1483 1483 1483 1482 1482 1482 1482
1511 1512 1512 1512 1512 1512 1511 1510 1509 1508 1507 1507 1505 1504 1503 1501 1500 1499 1498 1496 1495 1494 1493 1492 1491 1489 1488 1487 1486 1485 1485 1484 1483 1482 1481 1481 1480 1479 1479 1478 1478 1478 1477
1509 1510 1510 1510 1510 1510 1509 1508 1507 1506 1505 1504 1503 1501 1500 1499 1498 1496 1495 1493 1492 1491 1489 1488 1487 1486 1485 1484 1483 1482 1481 1480 1480 1479 1478 1477 1476 1476 1475 1475 1474 1473 1472
1507 1507 1508 1508 1508 1507 1507 1505 1504 1504 1503 1501 1500 1499 1497 1496 1495 1493 1492 1490 1489 1487 1486 1485 1483 1482 1481 1480 1479 1477 1477 1476 1475 1474 1474 1473 1473 1472 1472 1471 1470 1469 1469
1505 1505 1506 1506 1505 1505 1504 1503 1502 1501 1500 1499 1498 1496 1494 1493 1492 1490 1489 1487 1485 1484 1483 1481 1480 1479 1478 1476 1475 1473 1472 1472 1471 1470 1469 1469 1468 1468 1468 1467 1466 1465 1464
1503 1504 1504 1503 1503 1502 1501 1500 1500 1499 1498 1497 1495 1494 1492 1490 1489 1487 1486 1484 1482 1481 1479 1478 1477 1476 1474 1473 1471 1470 1468 1468 1467 1466 1465 1464 1464 1463 1463 1462 1461 1461 1460
1502 1502 1502 1501 1500 1500 1499 1498 1497 1496 1495 1494 1492 1491 1489 1487 1486 1484 1483 1481 1479 1477 1476 1474 1473 1472 1471 1469 1468 1466 1465 1464 1463 1462 1461 1460 1459 1458 1458 1458 1457 1456 1455
1501 1500 1500 1499 1498 1497 1496 1495 1494 1494 1492 1491 1489 1487 1486 1484 1483 1481 1479 1478 1476 1474 1472 1471 1470 1468 1467 1466 1464 1463 1462 1460 1459 1457 1456 1455 1454 1454 1453 1452 1452 1451 1451
1498 1498 1497 1497 1496 1495 1494 1493 1492 1491 1489 1487 1486 1484 1482 1481 1480 1478 1476 1475 1473 1471 1469 1468 1466 1464 1463 1462 1460 1459 1457 1456 1454 1453 1451 1450 1450 1449 1448 1448 1447 1447 1446
1496 1496 1495 1494 1493 1492 1491 1490 1489 1488 1486 1485 1483 1481 1479 1478 1476 1474 1472 1471 1469 1467 1465 1464 1462 1460 1459 1458 1456 1455 1453 1452 1450 1449 1447 1447 1446 1445 1444 1443 1442 1442 1441
1494 1493 1493 1492 1491 1490 1489 1488 1486 1485 1484 1482 1480 1478 1476 1474 1473 1471 1469 1466 1464 1463 1461 1459 1457 1456 1454 1453 1452 1451 1450 1448 1447 1445 1444 1443 1442 1441 1440 1439 1438 1437 1436
1491 1491 1490 1489 1488 1487 1486 1485 1483 1482 1480 1479 1478 1476 1474 1472 1470 1468 1466 1463 1461 1459 1457 1455 1453 1452 1451 1450 1449 1447 1446 1445 1443 1442 1441 1439 1438 1437 1436 1436 1435 1434 1433
1489 1488 1487 1486 1485 1484 1483 1481 1480 1478 1477 1476 1475 1473 1471 1469 1466 1464 1462 1459 1458 1456 1454 1452 1450 1449 1448 1447 1445 1444 1443 1441 1440 1439 1438 1437 1436 1435 1434 1432 1431 1430 1429
1487 1486 1484 1483 1482 1481 1480 1478 1477 1475 1473 1472 1471 1469 1467 1465 1463 1461 1458 1456 1454 1452 1451 1449 1448 1446 1445 1444 1442 1441 1440 1438 1437 1436 1435 1434 1433 1432 1430 1429 1428 1427 1426
1484 1483 1482 1481 1480 1478 1477 1476 1474 1472 1471 1469 1467 1465 1464 1461 1459 1457 1455 1453 1451 1449 1448 1447 1445 1444 1442 1441 1439 1438 1436 1435 1434 1433 1432 1431 1430 1429 1427 1426 1425 1424 1423
1481 1480 1479 1478 1477 1476 1474 1473 1471 1470 1468 1466 1464 1462 1460 1458 1456 1454 1452 1450 1448 1447 1446 1444 1443 1441 1440 1438 1437 1435 1434 1432 1431 1430 1429 1428 1427 1425 1424 1422 1421 1420 1419
1479 1477 1477 1475 1475 1473 1472 1470 1468 1467 1465 1463 1461 1459 1457 1455 1453 1452 1450 1448 1446 1444 1443 1441 1440 1438 1437 1435 1434 1433 1431 1430 1429 1427 1426 1424 1423 1422 1421 1419 1418 1417 1416
1476 1475 1474 1473 1472 1471 1470 1468 1466 1464 1463 1461 1459 1457 1455 1453 1451 1449 1447 1445 1444 1442 1441 1439 1437 1436 1434 1433 1431 1430 1429 1427 1426 1424 1423 1421 1420 1419 1418 1416 1415 1415 1414
1474 1473 1472 1471 1470 1469 1467 1465 1464 1462 1460 1459 1456 1454 1452 1450 1448 1447 1445 1443 1442 1440 1438 1437 1435 1434 1432 1431 1429 1427 1426 1424 1423 1421 1420 1419 1418 1416 1415 1414 1413 1412 1411
1472 1471 1470 1469 1468 1466 1465 1463 1462 1460 1458 1456 1454 1452 1450 1448 1446 1444 1443 1441 1440 1438 1436 1435 1433 1431 1430 1428 1426 1425 1423 1421 1420 1419 1418 1416 1415 1414 1413 1412 1411 1410 1409
1470 1469 1468 1467 1465 1464 1463 1461 1459 1457 1456 1454 1452 1450 1448 1446 1444 1442 1441 1439 1438 1436 1434 1432 1430 1429 1427 1425 1424 1422 1420 1418 1417 1416 1415 1414 1412 1411 1411 1410 1409 1408 1408
1468 1467 1466 1465 1463 1462 1460 1458 1457 1455 1453 1451 1450 1448 1446 1444 1442 1441 1439 1437 1435 1434 1432 1430 1428 1426 1424 1422 1421 1419 1417 1416 1414 1413 1412 1411 1410 1409 1408 1408 1407 1407 1406